Home > Weather > Kawartha Lakes > Past weeks

Flag for Canada Weather for the Past 2 Weeks in Kawartha Lakes, Ontario, Canada

Now
60 °F

Refreshingly cool.


Feels Like: 60 °F
Forecast: N/A
Wind: 7 mph from Southeast

Location: Lagoon City

Current Time: May 4, 2016 at 7:25:27 PM

Latest Report: May 4, 2016 at 7:00 PM


Visibility: N/A

Pressure: 29.71 "Hg

Humidity: 39%

Dew Point: 35 °F

Location of Kawartha LakesLocation

Historic Weather in Kawartha Lakes — Graph

°F

Kawartha Lakes Temperature Yesterday

Maximum temperature yesterday: 53 °F (at 3:00 PM)
Minimum temperature yesterday: 44 °F (at 5:00 AM)
Average temperature yesterday: 48 °F

High & Low Weather Summary for the Past Weeks

 TemperatureHumidityPressure
High60 °F (May 4, 4:00 PM)100% (Apr 26, 9:00 AM)30.37 "Hg (Apr 26, 9:00 AM)
Low31 °F (Apr 23, 5:00 AM)25% (Apr 29, 5:00 PM)29.69 "Hg (May 4, 4:00 PM)
Average44 °F66%30.04 "Hg
* Reported Apr 19 5:00 PM — May 4 5:00 PM, Kawartha Lakes, Weather by CustomWeather, © 2016

Note: Actual official high and low records may vary slightly from our data, if they occured in-between our weather recording intervals... More about our weather records

Advertising

Kawartha Lakes Weather History for the Previous 24 Hours

Scroll right to see more
 ConditionsComfort  
Time TempWeatherWind HumidityBarometerVisibility
5:00 PM
Wed, May 4
57 °FRefreshingly cool.7 mph50%29.69 "HgN/A
4:00 PM60 °FRefreshingly cool.8 mph43%29.69 "HgN/A
3:00 PM59 °FRefreshingly cool.9 mph45%29.70 "HgN/A
1:00 PM58 °FRefreshingly cool.1 mph48%29.71 "HgN/A
12:00 PM56 °FRefreshingly cool.9 mph50%29.72 "HgN/A
11:00 AM55 °FCool.9 mph53%29.72 "HgN/A
10:00 AM54 °FCool.12 mph54%29.72 "HgN/A
9:00 AM53 °FCool.13 mph58%29.72 "HgN/A
8:00 AM49 °FCool.10 mph67%29.72 "HgN/A
7:00 AM44 °FQuite cool.7 mph71%29.72 "HgN/A
6:00 AM43 °FQuite cool.8 mph73%29.71 "HgN/A
5:00 AM43 °FQuite cool.5 mph73%29.72 "HgN/A
4:00 AM43 °FQuite cool.5 mph75%29.73 "HgN/A
3:00 AM42 °FQuite cool.5 mph83%29.74 "HgN/A
2:00 AM46 °FCool.5 mph74%29.75 "HgN/A
1:00 AM46 °FCool.5 mph73%29.75 "HgN/A
12:00 AM48 °FCool.6 mph70%29.76 "HgN/A
11:00 PM
Tue, May 3
49 °FCool.8 mph72%29.77 "HgN/A
10:00 PM51 °FCool.9 mph70%29.78 "HgN/A
9:00 PM51 °FCool.12 mph78%29.78 "HgN/A
8:00 PM50 °FCool.7 mph74%29.78 "HgN/A
7:00 PM50 °FCool.9 mph73%29.78 "HgN/A
Weather by CustomWeather, © 2016

See weather overviewHow to use our weather pages